Weather History for Westhampton Beach, NY

Change the Weather History Date:

Tuesday, February 12, 2013

  Actual Average Record
Temperature  
Mean Temperature 37 °F -  
Max Temperature 44 °F 38 °F 54 °F (1999)
Min Temperature 28 °F 20 °F 6 °F (2003)
Degree Days  
Heating Degree Days 28    
Moisture  
Dew Point 28 °F    
Average Humidity 68    
Maximum Humidity 100    
Minimum Humidity 45    
Precipitation  
Precipitation 0.00 in - - ()
Sea Level Pressure  
Sea Level Pressure 29.83 in    
Wind  
Wind Speed 10 mph (West)    
Max Wind Speed 25 mph    
Max Gust Speed 38 mph    
Visibility 9 miles    
Events      
Averages and records for this station are not official NWS values.
T = Trace of Precipitation, MM = Missing Value Source: NWS Daily Summary

Daily Weather History Graph

Daily Weather History Graph

Search for Another Location

Airport:

Trip Planner

Search our weather history database for the weather conditions in past years. The results will help you decide how hot, cold, wet, or windy it might be!

Date:

Astronomy

Feb. 12, 2013 Rise Set
Actual Time 6:48 AM EST 5:21 PM EST
Civil Twilight 6:19 AM EST 5:50 PM EST
Nautical Twilight 5:47 AM EST 6:22 PM EST
Astronomical Twilight 5:15 AM EST 6:54 PM EST
Moon 7:42 AM EST (2/12) 8:21 PM EST (2/12)
Length of Visible Light 11h 30m
Length of Day
10h 33m
Waxing Crescent, 7% of the Moon is Illuminated
Feb 12
Waxing Crescent
Feb 17
First Quarter
Feb 25
Full
Mar 4
Last Quarter
Mar 11
New

Hourly Weather History & Observations

Time (EST) Temp. Windchill Dew Point Humidity Pressure Visibility Wind Dir Wind Speed Gust Speed Precip Events Conditions
12:33 AM 41.0 °F 35.2 °F 39.2 °F 93% 29.72 in 10.0 mi West 9.2 mph - N/A   Partly Cloudy
12:53 AM 39.9 °F 34.5 °F 37.9 °F 93% 29.72 in 10.0 mi West 8.1 mph - N/A   Clear
1:53 AM 37.0 °F 32.4 °F 36.0 °F 96% 29.73 in 10.0 mi WSW 5.8 mph - N/A   Partly Cloudy
2:28 AM 33.8 °F 29.6 °F 33.8 °F 100% 29.73 in 1.8 mi West 4.6 mph - N/A   Clear
2:39 AM 35.6 °F 30.7 °F 33.8 °F 93% 29.73 in 3.0 mi West 5.8 mph - N/A   Mostly Cloudy
2:53 AM 36.0 °F 31.1 °F 33.1 °F 89% 29.74 in 8.0 mi West 5.8 mph - N/A   Mostly Cloudy
3:53 AM 37.9 °F 32.1 °F 34.0 °F 86% 29.74 in 10.0 mi WSW 8.1 mph - N/A   Overcast
4:53 AM 39.0 °F 31.8 °F 34.0 °F 82% 29.77 in 10.0 mi WNW 11.5 mph - N/A   Overcast
5:53 AM 37.9 °F 32.7 °F 33.1 °F 83% 29.77 in 10.0 mi West 6.9 mph - N/A   Mostly Cloudy
6:53 AM 35.1 °F 27.9 °F 30.0 °F 82% 29.80 in 10.0 mi WSW 9.2 mph - N/A   Partly Cloudy
7:53 AM 37.9 °F 30.9 °F 28.9 °F 70% 29.81 in 10.0 mi West 10.4 mph - N/A   Mostly Cloudy
8:53 AM 39.9 °F 32.5 °F 28.9 °F 65% 29.82 in 10.0 mi West 12.7 mph - N/A   Clear
9:53 AM 43.0 °F 33.3 °F 26.1 °F 51% 29.82 in 10.0 mi West 25.3 mph 38.0 mph N/A   Clear
10:53 AM 43.0 °F 34.2 °F 25.0 °F 49% 29.84 in 10.0 mi West 20.7 mph 29.9 mph N/A   Clear
11:53 AM 44.1 °F 35.9 °F 24.1 °F 45% 29.83 in 10.0 mi West 19.6 mph 27.6 mph N/A   Partly Cloudy
12:53 PM 44.1 °F 35.7 °F 24.1 °F 45% 29.85 in 10.0 mi WNW 20.7 mph 28.8 mph N/A   Partly Cloudy
1:53 PM 44.1 °F 35.2 °F 24.1 °F 45% 29.85 in 10.0 mi West 23.0 mph 31.1 mph N/A   Clear
2:53 PM 44.1 °F 35.9 °F 24.1 °F 45% 29.85 in 10.0 mi WNW 19.6 mph 26.5 mph N/A   Clear
3:53 PM 43.0 °F 35.1 °F 23.0 °F 45% 29.85 in 10.0 mi WNW 17.3 mph 25.3 mph N/A   Clear
4:53 PM 42.1 °F 36.6 °F 24.1 °F 49% 29.82 in 10.0 mi NW 9.2 mph 18.4 mph N/A   Clear
5:53 PM 39.0 °F 33.4 °F 24.1 °F 55% 29.88 in 10.0 mi West 8.1 mph - N/A   Clear
6:53 PM 37.9 °F 31.5 °F 23.0 °F 55% 29.96 in 10.0 mi West 9.2 mph - N/A   Clear
7:53 PM 37.0 °F 30.4 °F 23.0 °F 57% 29.95 in 10.0 mi West 9.2 mph - N/A   Clear
8:53 PM 36.0 °F 29.0 °F 23.0 °F 59% 29.95 in 10.0 mi WNW 9.2 mph - N/A   Clear
9:53 PM 34.0 °F 29.8 °F 21.9 °F 61% 29.91 in 10.0 mi WNW 4.6 mph - N/A   Clear
10:53 PM 30.0 °F 24.1 °F 21.0 °F 69% 29.91 in 10.0 mi WSW 5.8 mph - N/A   Clear
11:53 PM 28.9 °F - 21.0 °F 72% 29.93 in 10.0 mi Calm Calm - N/A   Clear